Powrót do katalogu

COSMOS 397 DEB

AktywnyLEO
NORAD 5187·DEBRIS·🇷🇺 Russia

Wystrzelony Feb 25, 1971 z Baikonur Cosmodrome

Loading…

Następne Przeloty (najbliższe 24 godziny)

TLE

ŚwieżeSource: Space-Track

Epoka: Sep 14, 2026, 05:26 UTC

1 05187U 71015AM  26257.22673507  .00000991  00000-0  29599-3 0  9995
2 05187  65.6479 350.0570 0575518  46.9100 317.8662 13.79970556684307

Śledź COSMOS 397 DEB w czasie rzeczywistym z AllMySat

Download on the App Store